Time,TemperatureF,DewpointF,PressureIn,WindDirection,WindDirectionDegrees,WindSpeedMPH,WindSpeedGustMPH,Humidity,HourlyPrecipIn,Conditions,Clouds,dailyrainin,SolarRadiationWatts/m^2,SoftwareType,DateUTC
2013-01-24 00:02:00,47.0,47.0,-100.00,NNE,32,0.0,7.0,99,0.00,,,0.00,0.000000,,2013-01-24 10:02:00,
2013-01-24 00:12:00,47.0,47.0,-100.00,NNE,32,0.0,7.0,99,0.00,,,0.00,0.000000,,2013-01-24 10:12:00,
2013-01-24 00:22:00,47.0,47.0,-100.00,NNE,32,0.0,7.0,99,0.00,,,0.00,0.000000,,2013-01-24 10:22:00,
2013-01-24 00:32:00,47.0,47.0,-100.00,NNE,32,0.0,7.0,99,0.00,,,0.00,0.000000,,2013-01-24 10:32:00,
2013-01-24 00:53:00,44.0,43.0,-100.00,ESE,113,1.0,5.0,98,0.00,,,0.00,0.000000,,2013-01-24 10:53:00,
2013-01-24 01:02:00,44.0,43.0,-100.00,ESE,113,1.0,5.0,98,0.00,,,0.00,0.000000,,2013-01-24 11:02:00,
2013-01-24 01:12:00,44.0,43.0,-100.00,ESE,113,1.0,5.0,98,0.00,,,0.00,0.000000,,2013-01-24 11:12:00,
2013-01-24 01:22:00,44.0,43.0,-100.00,ESE,113,1.0,5.0,98,0.00,,,0.00,0.000000,,2013-01-24 11:22:00,
2013-01-24 01:32:00,44.0,43.0,-100.00,ESE,113,1.0,5.0,98,0.00,,,0.00,0.000000,,2013-01-24 11:32:00,
2013-01-24 01:53:00,45.0,43.0,-100.00,NNE,25,0.0,6.0,94,0.00,,,0.00,0.000000,,2013-01-24 11:53:00,
2013-01-24 02:03:00,45.0,43.0,-100.00,NNE,25,0.0,6.0,94,0.00,,,0.00,0.000000,,2013-01-24 12:03:00,
2013-01-24 02:12:00,45.0,43.0,-100.00,NNE,25,0.0,6.0,94,0.00,,,0.00,0.000000,,2013-01-24 12:12:00,
2013-01-24 02:22:00,45.0,43.0,-100.00,NNE,25,0.0,6.0,94,0.00,,,0.00,0.000000,,2013-01-24 12:22:00,
2013-01-24 02:32:00,45.0,43.0,-100.00,NNE,25,0.0,6.0,94,0.00,,,0.00,0.000000,,2013-01-24 12:32:00,
2013-01-24 02:53:00,47.0,37.0,-100.00,ENE,62,0.0,5.0,68,0.00,,,0.00,0.000000,,2013-01-24 12:53:00,
2013-01-24 03:02:00,47.0,37.0,-100.00,ENE,62,0.0,5.0,68,0.00,,,0.00,0.000000,,2013-01-24 13:02:00,
2013-01-24 03:12:00,47.0,37.0,-100.00,ENE,62,0.0,5.0,68,0.00,,,0.00,0.000000,,2013-01-24 13:12:00,
2013-01-24 03:22:00,47.0,37.0,-100.00,ENE,62,0.0,5.0,68,0.00,,,0.00,0.000000,,2013-01-24 13:22:00,
2013-01-24 03:32:00,47.0,37.0,-100.00,ENE,62,0.0,5.0,68,0.00,,,0.00,0.000000,,2013-01-24 13:32:00,
2013-01-24 03:53:00,48.0,32.0,-100.00,SSE,147,0.0,5.0,53,0.00,,,0.00,0.000000,,2013-01-24 13:53:00,
2013-01-24 04:02:00,48.0,32.0,-100.00,SSE,147,0.0,5.0,53,0.00,,,0.00,0.000000,,2013-01-24 14:02:00,
2013-01-24 04:12:00,48.0,32.0,-100.00,SSE,147,0.0,5.0,53,0.00,,,0.00,0.000000,,2013-01-24 14:12:00,
2013-01-24 04:22:00,48.0,32.0,-100.00,SSE,147,0.0,5.0,53,0.00,,,0.00,0.000000,,2013-01-24 14:22:00,
2013-01-24 04:32:00,48.0,32.0,-100.00,SSE,147,0.0,5.0,53,0.00,,,0.00,0.000000,,2013-01-24 14:32:00,
2013-01-24 04:54:00,46.0,32.0,-100.00,ESE,103,1.0,6.0,59,0.00,,,0.00,0.000000,,2013-01-24 14:54:00,
2013-01-24 05:03:00,46.0,32.0,-100.00,ESE,103,1.0,6.0,59,0.00,,,0.00,0.000000,,2013-01-24 15:03:00,
2013-01-24 05:12:00,46.0,32.0,-100.00,ESE,103,1.0,6.0,59,0.00,,,0.00,0.000000,,2013-01-24 15:12:00,
2013-01-24 05:22:00,46.0,32.0,-100.00,ESE,103,1.0,6.0,59,0.00,,,0.00,0.000000,,2013-01-24 15:22:00,
2013-01-24 05:32:00,46.0,32.0,-100.00,ESE,103,1.0,6.0,59,0.00,,,0.00,0.000000,,2013-01-24 15:32:00,
2013-01-24 05:33:00,44.0,31.0,-100.00,NE,40,0.0,7.0,59,0.00,,,0.00,0.000000,,2013-01-24 15:33:00,
2013-01-24 05:53:00,44.0,31.0,-100.00,NE,40,0.0,7.0,59,0.00,,,0.00,0.000000,,2013-01-24 15:53:00,
2013-01-24 06:03:00,44.0,31.0,-100.00,NE,40,0.0,7.0,59,0.00,,,0.00,0.000000,,2013-01-24 16:03:00,
2013-01-24 06:12:00,44.0,31.0,-100.00,NE,40,0.0,7.0,59,0.00,,,0.00,0.000000,,2013-01-24 16:12:00,
2013-01-24 06:22:00,44.0,31.0,-100.00,NE,40,0.0,7.0,59,0.00,,,0.00,0.000000,,2013-01-24 16:22:00,
2013-01-24 07:02:00,43.0,36.0,-100.00,SE,136,1.0,8.0,77,0.00,,,0.00,0.000000,,2013-01-24 17:02:00,
2013-01-24 07:11:00,43.0,36.0,-100.00,SE,136,1.0,8.0,77,0.00,,,0.00,0.000000,,2013-01-24 17:11:00,
2013-01-24 07:21:00,43.0,36.0,-100.00,SE,136,1.0,8.0,77,0.00,,,0.00,0.000000,,2013-01-24 17:21:00,
2013-01-24 07:31:00,43.0,36.0,-100.00,SE,136,1.0,8.0,77,0.00,,,0.00,0.000000,,2013-01-24 17:31:00,
2013-01-24 07:52:00,45.0,45.0,-100.00,East,92,4.0,7.0,99,0.00,,,0.00,2.000000,,2013-01-24 17:52:00,
2013-01-24 08:02:00,45.0,45.0,-100.00,East,92,4.0,7.0,99,0.00,,,0.00,2.000000,,2013-01-24 18:02:00,
2013-01-24 08:12:00,45.0,45.0,-100.00,East,92,4.0,7.0,99,0.00,,,0.00,2.000000,,2013-01-24 18:12:00,
2013-01-24 08:22:00,45.0,45.0,-100.00,East,92,4.0,7.0,99,0.00,,,0.00,2.000000,,2013-01-24 18:22:00,
2013-01-24 08:32:00,45.0,45.0,-100.00,East,92,4.0,7.0,99,0.00,,,0.00,2.000000,,2013-01-24 18:32:00,
2013-01-24 08:53:00,52.0,51.0,-100.00,NW,324,5.0,8.0,97,0.00,,,0.00,141.000000,,2013-01-24 18:53:00,
2013-01-24 09:01:00,52.0,51.0,-100.00,NW,324,5.0,8.0,97,0.00,,,0.00,141.000000,,2013-01-24 19:01:00,
2013-01-24 09:12:00,52.0,51.0,-100.00,NW,324,5.0,8.0,97,0.00,,,0.00,141.000000,,2013-01-24 19:12:00,
2013-01-24 09:21:00,52.0,51.0,-100.00,NW,324,5.0,8.0,97,0.00,,,0.00,141.000000,,2013-01-24 19:21:00,
2013-01-24 09:32:00,52.0,51.0,-100.00,NW,324,5.0,8.0,97,0.00,,,0.00,141.000000,,2013-01-24 19:32:00,
2013-01-24 09:52:00,59.0,54.0,-100.00,WSW,241,1.0,10.0,82,0.00,,,0.00,451.000000,,2013-01-24 19:52:00,
2013-01-24 10:02:00,59.0,54.0,-100.00,WSW,241,1.0,10.0,82,0.00,,,0.00,451.000000,,2013-01-24 20:02:00,
2013-01-24 10:11:00,59.0,54.0,-100.00,WSW,241,1.0,10.0,82,0.00,,,0.00,451.000000,,2013-01-24 20:11:00,
2013-01-24 10:22:00,59.0,54.0,-100.00,WSW,241,1.0,10.0,82,0.00,,,0.00,451.000000,,2013-01-24 20:22:00,
2013-01-24 10:32:00,59.0,54.0,-100.00,WSW,241,1.0,10.0,82,0.00,,,0.00,451.000000,,2013-01-24 20:32:00,
2013-01-24 10:52:00,61.0,51.0,-100.00,SW,231,4.0,8.0,69,0.00,,,0.00,670.000000,,2013-01-24 20:52:00,
2013-01-24 11:02:00,61.0,51.0,-100.00,SW,231,4.0,8.0,69,0.00,,,0.00,670.000000,,2013-01-24 21:02:00,
2013-01-24 11:12:00,61.0,51.0,-100.00,SW,231,4.0,8.0,69,0.00,,,0.00,670.000000,,2013-01-24 21:12:00,
2013-01-24 11:22:00,61.0,51.0,-100.00,SW,231,4.0,8.0,69,0.00,,,0.00,670.000000,,2013-01-24 21:22:00,
2013-01-24 11:32:00,61.0,51.0,-100.00,SW,231,4.0,8.0,69,0.00,,,0.00,670.000000,,2013-01-24 21:32:00,
2013-01-24 11:53:00,62.0,53.0,-100.00,South,172,6.0,9.0,72,0.00,,,0.00,823.000000,,2013-01-24 21:53:00,
2013-01-24 12:02:00,62.0,53.0,-100.00,South,172,6.0,9.0,72,0.00,,,0.00,823.000000,,2013-01-24 22:02:00,
2013-01-24 12:12:00,62.0,53.0,-100.00,South,172,6.0,9.0,72,0.00,,,0.00,823.000000,,2013-01-24 22:12:00,
2013-01-24 12:22:00,62.0,53.0,-100.00,South,172,6.0,9.0,72,0.00,,,0.00,823.000000,,2013-01-24 22:22:00,
2013-01-24 12:32:00,62.0,53.0,-100.00,South,172,6.0,9.0,72,0.00,,,0.00,823.000000,,2013-01-24 22:32:00,
2013-01-24 12:53:00,59.0,57.0,-100.00,West,275,4.0,13.0,92,0.00,,,0.00,737.000000,,2013-01-24 22:53:00,
2013-01-24 13:02:00,59.0,57.0,-100.00,West,275,4.0,13.0,92,0.00,,,0.00,737.000000,,2013-01-24 23:02:00,
2013-01-24 13:11:00,59.0,57.0,-100.00,West,275,4.0,13.0,92,0.00,,,0.00,737.000000,,2013-01-24 23:11:00,
2013-01-24 13:21:00,59.0,57.0,-100.00,West,275,4.0,13.0,92,0.00,,,0.00,737.000000,,2013-01-24 23:21:00,
2013-01-24 13:32:00,59.0,57.0,-100.00,West,275,4.0,13.0,92,0.00,,,0.00,737.000000,,2013-01-24 23:32:00,
2013-01-24 13:52:00,63.0,58.0,-100.00,SW,235,4.0,12.0,85,0.00,,,0.00,341.000000,,2013-01-24 23:52:00,
2013-01-24 14:02:00,63.0,58.0,-100.00,SW,235,4.0,12.0,85,0.00,,,0.00,341.000000,,2013-01-25 00:02:00,
2013-01-24 14:12:00,63.0,58.0,-100.00,SW,235,4.0,12.0,85,0.00,,,0.00,341.000000,,2013-01-25 00:12:00,
2013-01-24 14:22:00,63.0,58.0,-100.00,SW,235,4.0,12.0,85,0.00,,,0.00,341.000000,,2013-01-25 00:22:00,
2013-01-24 14:32:00,63.0,58.0,-100.00,SW,235,4.0,12.0,85,0.00,,,0.00,341.000000,,2013-01-25 00:32:00,
2013-01-24 14:52:00,58.0,56.0,-100.00,West,267,4.0,11.0,94,0.00,,,0.00,420.000000,,2013-01-25 00:52:00,
2013-01-24 15:01:00,58.0,56.0,-100.00,West,267,4.0,11.0,94,0.00,,,0.00,420.000000,,2013-01-25 01:01:00,
2013-01-24 15:12:00,58.0,56.0,-100.00,West,267,4.0,11.0,94,0.00,,,0.00,420.000000,,2013-01-25 01:12:00,
2013-01-24 15:21:00,58.0,56.0,-100.00,West,267,4.0,11.0,94,0.00,,,0.00,420.000000,,2013-01-25 01:21:00,
2013-01-24 15:31:00,58.0,56.0,-100.00,West,267,4.0,11.0,94,0.00,,,0.00,420.000000,,2013-01-25 01:31:00,
2013-01-24 15:52:00,57.0,57.0,-100.00,SW,236,6.0,10.0,99,0.00,,,0.00,160.000000,,2013-01-25 01:52:00,
2013-01-24 16:02:00,57.0,57.0,-100.00,SW,236,6.0,10.0,99,0.00,,,0.00,160.000000,,2013-01-25 02:02:00,
2013-01-24 16:11:00,57.0,57.0,-100.00,SW,236,6.0,10.0,99,0.00,,,0.00,160.000000,,2013-01-25 02:11:00,
2013-01-24 16:22:00,57.0,57.0,-100.00,SW,236,6.0,10.0,99,0.00,,,0.00,160.000000,,2013-01-25 02:22:00,
2013-01-24 16:31:00,57.0,57.0,-100.00,SW,236,6.0,10.0,99,0.00,,,0.00,160.000000,,2013-01-25 02:31:00,
2013-01-24 16:52:00,58.0,57.0,-100.00,West,267,5.0,10.0,98,0.00,,,0.00,162.000000,,2013-01-25 02:52:00,
2013-01-24 17:02:00,58.0,57.0,-100.00,West,267,5.0,10.0,98,0.00,,,0.00,162.000000,,2013-01-25 03:02:00,
2013-01-24 17:12:00,58.0,57.0,-100.00,West,267,5.0,10.0,98,0.00,,,0.00,162.000000,,2013-01-25 03:12:00,
2013-01-24 17:21:00,58.0,57.0,-100.00,West,267,5.0,10.0,98,0.00,,,0.00,162.000000,,2013-01-25 03:21:00,
2013-01-24 17:32:00,58.0,57.0,-100.00,West,267,5.0,10.0,98,0.00,,,0.00,162.000000,,2013-01-25 03:32:00,
2013-01-24 17:52:00,58.0,45.0,-100.00,East,98,14.0,14.0,63,0.00,,,0.00,164.000000,,2013-01-25 03:52:00,
2013-01-24 18:02:00,58.0,45.0,-100.00,East,98,14.0,14.0,63,0.00,,,0.00,164.000000,,2013-01-25 04:02:00,
2013-01-24 18:11:00,58.0,45.0,-100.00,East,98,14.0,14.0,63,0.00,,,0.00,164.000000,,2013-01-25 04:11:00,
2013-01-24 18:22:00,58.0,45.0,-100.00,East,98,14.0,14.0,63,0.00,,,0.00,164.000000,,2013-01-25 04:22:00,
2013-01-24 18:31:00,58.0,45.0,-100.00,East,98,14.0,14.0,63,0.00,,,0.00,164.000000,,2013-01-25 04:31:00,
2013-01-24 18:52:00,50.0,50.0,-100.00,West,262,1.0,31.0,99,0.00,,,0.00,32.000000,,2013-01-25 04:52:00,
2013-01-24 19:03:00,50.0,50.0,-100.00,West,262,1.0,31.0,99,0.00,,,0.00,32.000000,,2013-01-25 05:03:00,
2013-01-24 19:12:00,50.0,50.0,-100.00,West,262,1.0,31.0,99,0.00,,,0.00,32.000000,,2013-01-25 05:12:00,
2013-01-24 19:22:00,50.0,50.0,-100.00,West,262,1.0,31.0,99,0.00,,,0.00,32.000000,,2013-01-25 05:22:00,
2013-01-24 19:32:00,50.0,50.0,-100.00,West,262,1.0,31.0,99,0.00,,,0.00,32.000000,,2013-01-25 05:32:00,
2013-01-24 19:52:00,50.0,50.0,-100.00,North,2,1.0,14.0,99,0.00,,,0.00,1.000000,,2013-01-25 05:52:00,
2013-01-24 20:02:00,50.0,50.0,-100.00,North,2,1.0,14.0,99,0.00,,,0.00,1.000000,,2013-01-25 06:02:00,
2013-01-24 20:11:00,50.0,50.0,-100.00,North,2,1.0,14.0,99,0.00,,,0.00,1.000000,,2013-01-25 06:11:00,
2013-01-24 20:21:00,50.0,50.0,-100.00,North,2,1.0,14.0,99,0.00,,,0.00,1.000000,,2013-01-25 06:21:00,
2013-01-24 20:31:00,50.0,50.0,-100.00,North,2,1.0,14.0,99,0.00,,,0.00,1.000000,,2013-01-25 06:31:00,
2013-01-24 20:52:00,49.0,49.0,-100.00,NNW,333,1.0,8.0,99,0.00,,,0.00,0.000000,,2013-01-25 06:52:00,
2013-01-24 21:02:00,49.0,49.0,-100.00,NNW,333,1.0,8.0,99,0.00,,,0.00,0.000000,,2013-01-25 07:02:00,
2013-01-24 21:11:00,49.0,49.0,-100.00,NNW,333,1.0,8.0,99,0.00,,,0.00,0.000000,,2013-01-25 07:11:00,
2013-01-24 21:21:00,49.0,49.0,-100.00,NNW,333,1.0,8.0,99,0.00,,,0.00,0.000000,,2013-01-25 07:21:00,
2013-01-24 21:31:00,49.0,49.0,-100.00,NNW,333,1.0,8.0,99,0.00,,,0.00,0.000000,,2013-01-25 07:31:00,
2013-01-24 21:52:00,49.0,49.0,-100.00,NNW,346,4.0,9.0,99,0.00,,,0.00,0.000000,,2013-01-25 07:52:00,
2013-01-24 22:01:00,49.0,49.0,-100.00,NNW,346,4.0,9.0,99,0.00,,,0.00,0.000000,,2013-01-25 08:01:00,
2013-01-24 22:11:00,49.0,49.0,-100.00,NNW,346,4.0,9.0,99,0.00,,,0.00,0.000000,,2013-01-25 08:11:00,
2013-01-24 22:21:00,49.0,49.0,-100.00,NNW,346,4.0,9.0,99,0.00,,,0.00,0.000000,,2013-01-25 08:21:00,
2013-01-24 22:31:00,49.0,49.0,-100.00,NNW,346,4.0,9.0,99,0.00,,,0.00,0.000000,,2013-01-25 08:31:00,
2013-01-24 22:52:00,47.0,47.0,-100.00,NE,51,4.0,10.0,99,0.00,,,0.00,0.000000,,2013-01-25 08:52:00,
2013-01-24 23:01:00,47.0,47.0,-100.00,NE,51,4.0,10.0,99,0.00,,,0.00,0.000000,,2013-01-25 09:01:00,
2013-01-24 23:11:00,47.0,47.0,-100.00,NE,51,4.0,10.0,99,0.00,,,0.00,0.000000,,2013-01-25 09:11:00,
2013-01-24 23:21:00,47.0,47.0,-100.00,NE,51,4.0,10.0,99,0.00,,,0.00,0.000000,,2013-01-25 09:21:00,
2013-01-24 23:31:00,47.0,47.0,-100.00,NE,51,4.0,10.0,99,0.00,,,0.00,0.000000,,2013-01-25 09:31:00,
2013-01-24 23:52:00,52.0,51.0,-100.00,SSW,192,4.0,20.0,97,0.00,,,0.00,0.000000,,2013-01-25 09:52:00,